DELTA 1 DEB, 10706

Orbit data source: Space-Track

DELTA 1 DEB, 10706 is space debris in SSO originally from a launch on Thu, 29 Jul 1976 UTC launched from the Air Force Western Test Range (AFWTR). Debris objects in space refer to the collection of defunct objects orbiting the Earth. Examples of debris include non-operational satellites, rocket bodies, and fragments generated from explosions, collisions, or faulty payload assembly.

Loading next visibility...
Identifier
10706, 1976-077AB
Orbit
SSO
Country
Flag of USUS
Related business
Manufacturer
Unknown
Mission
Spacecraft
Bus & Motor
Unknown
Mass
Unknown
Launch date (UTC)
1976-07-29 (49 years ago)
Launch vehicle
Unknown
Launch site
Air Force Western Test Range (AFWTR)
Object type
Payload
Rocket body
Debris
Shape & HBR
Unknown shape, 0.1 m
Radar Cross Section
Small (<0.1 m²)

Expand to show TLE details & history
Last TLE update: 1 day ago

TLE from 1 day ago
0 DELTA 1 DEB
1 10706U 76077AB  25302.53074470 -.00000044  00000-0  19177-4 0  9991
2 10706 101.5443 153.3675 0390399 259.8198 125.5987 12.82991912289896
Epoch: 2025-10-29T12:44Z
TLE epoch observation values (Epoch: 2025-10-29T12:44:16.342Z)
Latitude
28.35526°
Longitude
-82.10119°
Altitude
1,515.401 km
Speed
7.025 km/s
True Right ascension
09h 48m 16s
True Declination
28° 13' 32"
Sunlit
Object was in daylight at epoch
Visualization orbit readout
Latitude
Unknown
Longitude
Unknown
Altitude
Unknown
Speed
Unknown
Apparent Right ascension
Unknown
Apparent Declination
Unknown
Sunlit
N/A
Visualization observer readout
Local Sidereal Time
10:51:40
Azimuth
Unknown
Elevation
Unknown
Doppler factor
Unknown
Orbital elements
Apogee altitude
1,627.756 km
Perigee altitude
1,026.144 km
Semi-major axis
7,705.087 km
Eccentricity
0.03904
Inclination
101.5443°
RAAN
153.3675°
Arg. of periapsis
259.8198°
True anomaly
129.13346°
Mean anomaly
125.5987°
Eccentric anomaly
127.37623°
Mean motion
3.20905 °/min
Orbital period
112.18 mins
BSTAR
0.000019177
Loading maneuver chart data...
Computing Atmospheric mass density...
Loading historical data...
Loading historical data...
Loading historical data...
Loading historical data...
Loading historical data...
Loading historical data...
Loading historical data...

Documentation

Showing up to 5 results
|